Location: Newark
(36.0797°N, 3.9744°E)
Time: 15:42:57
(UTC+00:00)

Vanguard 2 - Pass Details

Date: 14 December 2019
Orbit: 553 x 2938 km, 32.9° (Epoch: 18 January)

Event Time Altitude Azimuth Distance (km) Brightness Sun altitude
Exits shadow 02:58:48 79° 206° (SSW) 2,969 10.1 -45.1°
Maximum altitude 02:59:28 80° 184° (S) 2,967 10.1 -45.0°
Drops below altitude 10° 03:16:45 10° 101° (E) 5,385 12.4 -41.5°
Sets 03:20:30 0° 100° (E) 6,191 13.0 -40.7°
